Date,TemperatureHighF,TemperatureAvgF,TemperatureLowF,DewpointHighF,DewpointAvgF,DewpointLowF,HumidityHigh,HumidityAvg,HumidityLow,PressureMaxIn,PressureMinIn,WindSpeedMaxMPH,WindSpeedAvgMPH,GustSpeedMaxMPH,PrecipitationSumIn
2013-1-1,78,70,66,70,64,62,93,83,66,30.05,29.94,10,5,10,0.26
2013-1-2,76,70,66,69,65,64,93,85,70,30.00,29.90,10,7,0,0.22
2013-1-3,75,68,66,69,65,63,92,89,73,30.00,29.92,11,6,0,0.13
2013-1-4,71,68,66,66,64,61,91,87,79,30.06,29.94,14,11,12,0.05
2013-1-5,74,69,66,66,63,61,89,80,69,30.07,29.96,14,9,0,0.05
2013-1-6,78,72,68,64,62,58,78,70,55,30.05,29.92,8,5,0,0.03
2013-1-7,80,73,68,64,62,59,83,70,48,30.02,29.88,10,7,0,0.08
2013-1-8,78,70,67,64,62,60,81,74,61,29.93,29.83,8,5,0,0.03
2013-1-9,76,69,67,66,64,63,90,84,69,29.94,29.84,7,4,0,0.02
2013-1-10,80,72,66,65,62,59,81,72,59,29.93,29.83,10,6,0,0.02
2013-1-11,80,71,67,68,63,61,85,76,61,29.90,29.82,8,6,0,0.01
2013-1-12,84,72,65,67,64,62,90,78,56,29.91,29.82,3,1,0,0.04
2013-1-13,87,73,63,67,62,56,87,70,50,29.92,29.85,3,1,2,0.05
2013-1-14,78,70,64,68,65,60,92,84,70,29.92,29.80,10,4,10,0.07
2013-1-15,82,72,65,66,64,62,91,76,56,29.89,29.80,6,3,0,0.05
2013-1-16,82,70,62,62,59,50,88,69,34,29.90,29.77,7,2,0,0.02
2013-1-17,81,69,61,64,60,58,89,76,54,29.86,29.77,4,2,0,0.01
2013-1-18,74,65,63,60,58,57,86,80,58,29.89,29.80,4,2,0,0.00
2013-1-19,78,67,62,60,54,51,72,65,53,29.91,29.86,8,5,0,0.00
2013-1-20,76,70,63,58,55,53,73,60,48,30.01,29.92,12,8,0,0.00
2013-1-21,78,71,65,61,58,55,72,63,53,30.05,29.97,11,8,0,0.00
2013-1-22,80,71,65,63,60,57,79,69,50,30.07,29.96,10,6,0,0.00
2013-1-23,76,69,64,66,62,56,89,77,69,30.01,29.92,7,4,0,0.00
2013-1-24,80,71,65,64,62,59,86,73,55,30.01,29.93,6,2,0,0.00
2013-1-25,88,72,61,66,61,55,86,70,43,30.01,29.89,4,2,4,0.00
2013-1-26,83,71,63,64,61,58,89,72,47,29.97,29.87,3,1,1,0.00
2013-1-27,79,71,63,65,60,55,79,69,55,29.93,29.81,11,4,0,0.00
2013-1-28,77,70,65,67,64,61,93,83,68,29.93,29.83,5,2,0,0.32
2013-1-29,74,67,64,67,63,60,92,87,77,29.96,29.86,3,0,0,0.02
2013-1-30,83,71,63,67,63,59,87,78,57,30.01,29.93,6,2,0,0.08
2013-1-31,78,70,66,68,65,63,91,85,69,30.03,29.96,9,5,0,0.07
2013-2-1,69,68,66,62,59,56,83,73,67,30.05,29.99,9,8,0,0.00
2013-2-2,75,69,68,61,59,58,78,71,56,30.08,29.98,9,5,0,0.00
2013-2-3,78,70,64,59,56,55,75,63,49,30.12,30.01,12,8,0,0.00
2013-2-4,76,69,64,65,60,55,88,74,56,30.06,29.99,12,9,0,0.03
2013-2-5,76,70,65,62,59,57,84,70,57,30.03,29.95,9,7,0,0.01
2013-2-6,76,68,64,69,64,62,92,88,71,30.03,29.95,8,5,6,0.28
2013-2-7,82,72,64,71,63,60,90,76,58,30.05,29.96,8,4,7,0.17
2013-2-8,77,72,68,61,61,61,80,70,59,30.05,30.03,5,5,5,0.01
2013-2-9,69,64,64,64,60,60,88,88,86,30.06,30.02,4,1,0,0.01
2013-2-10,78,71,68,66,62,60,83,74,59,30.13,30.02,9,7,0,0.02
2013-2-11,74,67,66,64,62,60,89,82,69,30.15,30.08,8,5,0,0.01
2013-2-12,66,66,66,58,57,57,74,73,72,30.13,30.13,7,7,0,0.00
2013-2-14,78,74,67,62,60,58,75,61,54,30.05,29.94,9,7,7,0.00
2013-2-15,78,70,63,66,60,56,81,70,56,30.03,29.92,10,5,2,0.01
2013-2-16,68,66,65,62,61,60,87,83,73,30.08,30.00,9,7,0,0.07
2013-2-17,73,67,64,64,60,58,88,79,67,30.10,30.01,12,8,0,0.05
2013-2-18,76,67,63,62,60,58,88,77,55,30.08,29.98,19,11,13,0.10
2013-2-19,78,70,64,63,58,54,83,66,47,30.07,29.98,12,9,0,0.04
2013-2-20,77,69,65,66,61,59,89,76,58,30.06,30.00,13,9,0,0.06
2013-2-21,73,68,64,67,62,59,90,84,74,30.07,30.00,11,6,10,0.02
2013-2-22,73,68,66,67,63,60,89,85,75,30.07,29.96,11,7,14,0.18
2013-2-23,77,66,65,63,61,57,90,82,57,30.04,29.97,12,7,9,0.04
2013-2-24,69,66,66,62,60,59,83,79,75,30.05,29.99,8,7,0,0.01
2013-2-25,78,71,65,66,61,58,83,71,57,30.05,29.98,11,8,10,0.01
2013-2-26,78,70,65,63,61,59,86,74,56,30.08,30.00,14,8,6,0.01
2013-2-27,72,67,66,59,57,55,78,72,59,30.13,30.06,9,6,0,0.00
2013-2-28,80,70,64,60,56,54,76,63,41,30.12,30.03,9,6,0,0.01
2013-3-1,77,70,65,62,57,54,81,64,49,30.10,30.02,11,9,0,0.00
2013-3-2,79,71,66,60,55,51,72,57,43,30.11,30.01,11,8,0,0.00
2013-3-3,78,72,67,58,54,51,67,55,44,30.13,30.03,11,8,0,0.00
2013-3-4,80,71,66,60,56,52,72,60,45,30.12,30.03,10,7,0,0.00
2013-3-5,70,66,65,57,55,53,73,68,58,30.10,30.03,6,4,0,0.00
2013-3-6,67,64,63,60,60,58,89,86,75,30.08,30.01,5,4,0,0.02
2013-3-7,85,72,64,67,62,58,85,70,51,30.03,29.91,7,3,0,0.00
2013-3-8,77,69,61,64,60,54,84,72,58,29.97,29.83,7,2,0,0.01
2013-3-9,75,70,62,66,63,60,91,78,69,29.91,29.81,11,5,0,0.15
2013-3-10,76,70,65,66,63,59,87,78,68,29.89,29.82,10,5,0,0.09
2013-3-11,84,71,62,66,62,58,89,75,53,30.00,29.91,5,3,0,0.00
2013-3-12,73,67,65,63,62,60,88,84,72,30.00,29.92,5,2,0,0.07
2013-3-13,72,64,62,59,58,57,84,80,62,30.03,29.94,7,3,0,0.00
2013-3-14,79,73,66,62,60,58,76,65,54,29.97,29.93,2,1,0,0.00
2013-3-15,75,70,66,64,61,58,85,72,62,29.93,29.84,5,2,0,0.00
2013-3-16,69,66,63,61,59,58,87,79,69,29.92,29.85,2,1,0,0.01
2013-3-17,81,78,64,79,72,53,96,84,44,29.95,29.88,6,1,8,0.00
2013-3-18,67,61,59,56,54,52,82,78,68,29.98,29.93,4,2,0,0.00
2013-3-19,84,70,60,64,57,52,77,63,43,29.96,29.87,6,2,0,0.00
2013-3-20,79,70,62,66,60,55,82,72,55,29.99,29.91,5,2,0,0.00
2013-3-21,87,74,65,68,63,58,81,70,47,30.00,29.89,5,1,0,0.00
2013-3-22,79,72,68,69,65,62,87,79,68,29.98,29.86,7,2,2,0.00
2013-3-23,71,68,65,66,64,60,94,87,76,29.98,29.88,7,3,0,0.40
2013-3-24,78,70,66,68,65,63,93,86,69,29.97,29.88,8,3,5,0.26
2013-3-25,82,72,64,68,63,59,87,74,57,29.96,29.87,7,2,0,0.01
2013-3-26,85,72,63,66,62,58,84,71,52,29.99,29.88,7,3,0,0.00
2013-3-27,79,71,64,67,61,57,85,73,56,29.94,29.87,8,2,0,0.01
2013-3-28,81,72,66,67,63,60,88,75,55,29.98,29.89,11,6,0,0.05
2013-3-29,76,68,65,66,63,62,91,84,65,30.00,29.93,9,6,10,0.07
2013-3-30,84,71,63,66,62,59,89,76,53,30.00,29.91,7,3,12,0.01
2013-3-31,80,70,65,62,55,51,86,60,41,30.00,29.90,8,6,7,0.00
2013-4-1,81,68,59,61,54,51,76,63,45,29.95,29.87,5,2,2,0.00
2013-4-2,77,66,62,55,54,53,75,66,45,30.00,29.91,8,4,0,0.00
2013-4-3,80,70,62,62,57,54,81,65,49,30.01,29.93,9,5,0,0.00
2013-4-4,86,67,60,63,57,53,79,71,46,30.03,29.94,4,1,0,0.00
2013-4-5,84,74,67,67,62,58,89,67,49,30.04,29.96,9,5,5,0.02
2013-4-6,87,82,74,69,67,64,77,62,48,30.08,29.97,8,4,11,0.00
2013-4-7,82,73,66,68,64,61,84,74,60,30.12,30.00,10,4,0,0.00
2013-4-8,78,70,68,65,62,59,82,77,64,30.04,29.98,7,4,7,0.00
2013-4-9,84,74,67,66,63,59,86,68,51,30.01,29.90,9,4,0,0.00
2013-4-10,84,75,67,66,62,58,84,66,48,30.00,29.89,10,5,13,0.00
2013-4-11,82,74,66,67,64,60,85,71,58,29.98,29.87,8,2,6,0.01
2013-4-12,77,70,65,65,62,60,86,76,63,29.92,29.86,5,2,7,0.00
2013-4-13,84,73,67,69,64,60,85,73,59,29.89,29.81,7,2,0,0.00
2013-4-14,78,74,69,68,65,61,87,76,59,29.88,29.81,9,4,0,0.00
2013-4-15,79,73,66,68,64,60,85,75,63,29.97,29.87,7,2,0,0.00
2013-4-16,82,72,66,70,64,60,85,75,58,30.03,29.93,5,1,0,0.00
2013-4-17,85,75,69,67,64,62,86,70,51,30.08,29.98,9,5,0,0.00
2013-4-18,82,74,69,67,64,61,83,69,57,30.08,30.00,9,6,4,0.00
2013-4-19,80,72,67,69,64,60,91,77,62,30.04,29.94,10,6,0,0.06
2013-4-20,88,76,66,67,63,59,84,66,46,30.09,29.97,4,2,0,0.00
2013-4-21,80,72,64,67,63,58,85,75,65,30.09,30.01,5,2,0,0.01
2013-4-22,80,73,66,68,64,59,82,73,54,30.10,30.01,8,3,0,0.00
2013-4-23,80,74,66,67,64,60,85,73,62,30.10,30.02,8,3,0,0.00
2013-4-24,88,76,69,70,65,60,88,71,47,30.16,30.04,8,4,0,0.00
2013-4-25,85,75,66,65,62,56,81,64,46,30.11,30.03,10,5,0,0.00
2013-4-26,83,75,68,64,61,58,78,63,44,30.10,30.02,11,6,0,0.00
2013-4-27,89,75,66,65,60,55,74,62,45,30.08,30.00,4,2,0,0.00
2013-4-28,78,71,65,66,62,58,81,74,64,30.08,30.00,6,2,0,0.00
2013-4-29,80,73,66,67,62,59,80,70,56,30.05,29.95,10,4,0,0.00
2013-4-30,81,73,67,69,64,60,82,72,62,30.05,29.99,5,1,0,0.04
2013-5-1,86,78,69,66,63,60,84,62,48,30.13,30.03,9,6,0,0.02
2013-5-2,83,72,68,64,62,60,82,72,52,30.12,30.06,6,3,7,0.00
2013-5-3,79,69,65,66,60,59,83,74,55,30.11,30.07,4,1,0,0.00
2013-5-4,78,78,78,64,64,64,64,62,61,29.96,29.96,4,4,11,0.00
2013-5-5,78,71,65,68,62,58,89,75,62,30.00,29.91,10,4,5,0.01
2013-5-6,70,68,67,68,65,63,94,90,83,30.00,29.92,4,1,0,0.02
2013-5-7,78,68,66,64,61,60,84,79,63,30.03,29.96,3,1,0,0.01
2013-5-8,86,74,65,68,64,61,89,73,53,30.07,29.98,5,2,0,0.00
2013-5-9,88,75,66,70,66,62,88,74,52,30.13,30.01,7,2,0,0.00
2013-5-10,86,76,68,70,67,64,88,74,54,30.13,30.07,10,5,6,0.00
2013-5-11,77,71,67,70,66,63,92,85,68,30.15,30.08,10,6,6,0.03
2013-5-12,72,69,67,70,67,65,94,92,90,30.17,30.07,9,7,13,0.15
2013-5-13,81,72,68,71,67,65,93,86,66,30.13,30.06,11,6,23,0.09
2013-5-14,85,76,68,68,66,64,88,71,54,30.15,30.08,10,5,0,0.01
2013-5-15,84,75,69,69,65,63,86,72,54,30.18,30.11,9,6,0,0.01
2013-5-16,83,74,70,68,64,61,80,71,57,30.17,30.08,11,7,0,0.01
2013-5-17,74,69,68,64,63,60,86,80,67,30.12,30.07,8,5,5,0.00
2013-5-18,76,69,67,65,61,59,84,76,66,30.07,30.02,3,2,0,0.00
2013-5-19,85,74,64,68,64,60,88,71,55,30.05,29.96,7,3,0,0.00
2013-5-20,86,73,65,66,63,60,90,73,50,30.03,29.95,7,3,0,0.00
2013-5-21,87,74,64,68,63,59,84,71,51,30.06,29.97,3,1,5,0.00
2013-5-22,79,68,65,66,61,58,81,76,64,30.05,29.99,1,0,0,0.00
2013-5-23,78,70,67,68,63,62,84,80,68,30.09,30.05,2,1,2,0.00
2013-5-24,85,77,69,72,65,62,84,68,52,30.11,30.04,10,5,5,0.01
2013-5-25,83,74,69,72,66,63,87,77,58,30.13,30.05,10,6,10,0.00
2013-5-26,85,76,68,67,64,62,84,68,51,30.14,30.05,11,7,0,0.00
2013-5-27,78,71,70,63,62,61,78,73,60,30.14,30.07,7,5,0,0.00
2013-5-28,77,75,68,64,63,61,80,67,64,30.12,30.07,3,2,0,0.00
2013-5-29,77,70,67,67,63,61,84,80,70,30.11,30.07,2,1,0,0.00
2013-5-30,81,75,68,68,65,62,85,73,62,30.08,30.01,7,4,7,0.00
2013-5-31,84,75,69,69,66,64,86,73,55,30.09,29.99,9,5,5,0.00
2013-6-1,85,77,71,72,66,62,79,69,57,30.11,30.04,9,6,5,0.00
2013-6-2,82,75,70,71,67,65,90,77,59,30.13,30.05,13,8,0,0.01
2013-6-3,82,75,70,68,64,63,82,70,57,30.15,30.07,10,6,0,0.00
2013-6-4,86,76,70,70,64,61,81,69,46,30.11,30.03,10,6,0,0.00
2013-6-5,75,70,68,66,64,62,86,80,74,30.09,30.05,9,6,0,0.00
2013-6-6,82,74,69,66,63,62,82,69,56,30.09,30.00,11,6,0,0.00
2013-6-7,82,77,71,66,62,59,73,61,51,30.09,29.99,11,9,0,0.00
2013-6-8,76,69,68,64,63,61,89,81,66,30.08,30.03,8,5,0,0.01
2013-6-9,85,74,68,68,64,63,86,72,51,30.13,30.05,9,6,0,0.00
2013-6-10,83,74,69,68,65,62,86,73,56,30.11,30.04,10,6,0,0.00
2013-6-11,86,76,70,68,64,62,83,67,49,30.08,30.00,9,6,0,0.00
2013-6-12,84,76,70,69,64,60,81,68,56,30.13,30.04,12,6,5,0.00
2013-6-13,84,75,68,70,66,64,89,75,55,30.14,30.08,11,8,6,0.06
2013-6-14,82,75,68,70,65,63,89,74,55,30.14,30.02,11,7,10,0.02
2013-6-15,84,73,68,68,60,-100,85,70,52,30.08,29.98,10,6,0,0.00
2013-6-16,85,75,67,72,63,61,86,68,46,30.07,29.99,10,6,11,0.00
2013-6-17,84,78,71,71,65,62,78,65,55,30.13,30.06,11,8,0,0.00
2013-6-18,76,71,70,66,64,63,83,79,68,30.10,30.06,7,4,7,0.00
2013-6-19,86,76,68,65,63,59,82,64,48,30.11,30.05,11,6,9,0.00
2013-6-20,85,75,66,71,65,63,92,72,50,30.10,30.02,9,5,0,0.00
2013-6-21,82,74,69,70,65,62,88,76,60,30.10,30.03,8,5,0,0.00
2013-6-22,83,74,69,68,64,61,81,72,56,30.13,30.05,9,6,0,0.00
2013-6-23,76,70,69,65,64,63,84,80,69,30.14,30.09,6,4,0,0.00
2013-6-24,89,76,68,70,64,61,87,68,48,30.17,30.10,10,6,0,0.00
2013-6-25,83,75,70,75,70,66,93,84,66,30.16,30.09,9,4,0,0.00
2013-6-26,78,72,69,71,66,64,88,81,71,30.14,30.10,7,2,0,0.00
2013-6-27,80,72,70,67,66,64,85,79,61,30.10,30.05,6,3,0,0.00
2013-6-28,88,77,71,73,68,64,88,73,53,30.09,30.02,9,4,0,0.24
2013-6-29,86,76,68,71,67,64,90,75,57,30.10,30.01,8,4,0,0.01
2013-6-30,89,80,72,70,67,65,83,66,48,30.11,30.03,11,5,0,0.00
2013-7-1,89,79,71,76,68,66,88,72,49,30.10,30.03,10,6,0,0.00
2013-7-2,88,78,70,75,67,64,85,70,51,30.07,29.99,10,5,0,0.00
2013-7-3,90,80,73,71,67,64,79,64,46,30.08,29.99,10,5,3,0.00
2013-7-4,91,80,72,70,67,65,83,67,49,30.10,30.03,8,5,0,0.00
2013-7-5,89,79,70,71,68,63,86,69,54,30.10,30.03,10,4,0,0.01
2013-7-6,91,80,68,72,67,63,85,67,49,30.09,30.02,7,3,9,0.00
2013-7-7,90,79,68,72,67,61,85,68,51,30.07,29.96,9,4,0,0.00
2013-7-8,91,81,73,72,69,64,87,68,49,30.10,29.98,8,5,0,0.00
2013-7-9,89,81,76,71,69,68,79,67,52,30.15,30.07,13,7,0,0.00
2013-7-10,88,80,74,73,69,66,81,70,51,30.21,30.15,11,8,0,0.00
2013-7-11,88,82,74,69,68,66,80,64,51,30.17,30.08,10,7,0,0.00
2013-7-12,88,77,71,70,66,64,83,71,53,30.13,30.08,10,4,0,0.00
2013-7-13,90,81,73,68,66,63,80,62,43,30.08,30.00,10,6,0,0.00
2013-7-14,90,79,69,68,65,62,80,63,42,30.06,29.98,9,5,0,0.00
2013-7-15,88,84,77,69,67,63,72,57,49,30.09,29.99,8,5,0,0.00
2013-7-16,90,81,74,69,66,63,74,60,46,30.07,29.97,9,5,0,0.00
2013-7-17,88,81,75,72,65,59,80,60,48,30.08,30.00,11,7,0,0.00
2013-7-18,88,79,72,73,68,65,83,69,54,30.11,30.02,10,6,0,0.01
2013-7-19,90,81,72,70,68,65,81,67,51,30.14,30.06,9,4,0,0.00
2013-7-20,86,80,76,68,67,64,71,65,49,30.10,30.05,9,6,5,0.00
2013-7-21,90,81,73,70,66,63,81,62,43,30.08,30.00,10,6,10,0.00
2013-7-22,93,80,74,77,72,68,92,78,53,30.08,29.98,5,3,0,0.02
2013-7-23,88,82,75,74,72,70,88,74,58,30.06,30.02,9,3,0,0.00
2013-7-24,89,80,73,71,68,66,87,68,51,30.07,29.96,10,6,20,0.01
2013-7-25,90,81,73,69,66,63,77,62,47,30.04,29.98,11,6,0,0.00
2013-7-26,90,79,72,73,68,65,87,70,51,30.11,30.01,9,5,0,0.00
2013-7-27,89,80,73,71,67,62,81,65,52,30.11,30.02,11,6,0,0.00
2013-7-28,90,79,71,76,69,65,92,72,48,30.08,29.99,10,5,0,0.01
2013-7-29,84,78,75,78,74,70,94,89,75,30.02,29.84,10,6,16,0.14
2013-7-30,91,82,74,75,72,68,84,71,55,30.16,30.04,11,4,0,0.01
2013-7-31,86,79,77,71,69,67,81,73,55,30.17,30.09,11,6,9,0.00
2013-8-1,89,81,74,70,67,61,78,63,49,30.16,30.07,10,6,8,0.00
2013-8-2,89,80,73,70,68,65,82,67,50,30.11,30.03,10,6,7,0.00
2013-8-3,90,80,73,71,68,65,83,67,50,30.11,30.03,10,6,0,0.00
2013-8-4,90,80,72,71,68,66,87,70,51,30.10,30.01,10,6,6,0.02
2013-8-5,90,79,73,75,70,67,90,74,54,30.09,30.00,10,5,0,0.02
2013-8-6,90,81,74,70,68,66,80,66,49,30.10,30.03,11,7,0,0.00
2013-8-7,88,79,73,80,67,65,85,69,46,30.12,30.05,9,5,0,0.15
2013-8-8,89,79,73,71,67,65,79,68,50,30.14,30.05,8,4,10,0.00
2013-8-9,91,78,71,77,69,64,94,75,52,30.12,30.02,10,5,14,0.26
2013-8-10,86,77,73,74,72,71,95,88,65,30.10,30.01,10,5,0,0.02
2013-8-11,89,81,74,74,71,69,90,73,56,30.10,30.05,9,6,5,0.06
2013-8-12,88,80,75,70,69,67,82,70,52,30.13,30.06,10,7,0,0.01
2013-8-13,88,80,75,72,69,66,81,70,51,30.11,30.02,8,6,8,0.00
2013-8-14,88,79,75,70,68,66,78,69,52,30.09,29.99,11,7,10,0.00
2013-8-15,89,80,73,71,68,64,82,68,50,30.10,30.03,10,6,0,0.00
2013-8-16,87,79,73,72,70,66,88,75,59,30.11,30.04,11,7,0,0.00
2013-8-17,88,80,73,70,67,64,78,66,50,30.10,30.01,10,6,8,0.00
2013-8-18,90,81,74,72,68,66,79,66,47,30.10,30.02,8,5,0,0.00
2013-8-19,89,79,70,72,67,62,83,68,51,30.10,30.01,10,4,5,0.00
2013-8-20,92,80,72,72,69,65,87,70,50,30.06,29.97,5,2,4,0.00
2013-8-21,94,79,71,74,69,65,83,71,48,30.06,29.95,7,2,2,0.00
2013-8-22,93,82,72,75,69,67,86,67,45,30.05,29.96,8,3,0,0.00
2013-8-23,92,81,72,71,69,66,91,68,50,30.07,29.97,10,6,4,0.01
2013-8-24,90,81,74,72,69,67,82,68,50,30.08,30.01,9,5,0,0.00
2013-8-25,89,80,75,75,69,67,81,70,50,30.14,30.06,10,6,0,0.00
2013-8-26,90,81,76,70,69,67,81,68,49,30.16,30.09,9,7,0,0.00
2013-8-27,90,80,72,71,68,65,86,67,46,30.17,30.07,10,5,0,0.01
2013-8-28,89,80,73,72,70,68,90,74,51,30.09,29.98,7,4,0,0.01
2013-8-29,91,80,72,72,69,66,84,69,53,30.03,29.94,10,5,6,0.00
2013-8-30,90,80,72,72,68,64,83,68,51,30.09,30.00,9,4,9,0.00
2013-8-31,90,80,74,72,68,65,87,68,48,30.11,30.01,10,5,0,0.00
2013-9-1,88,79,72,74,68,64,81,69,56,30.08,30.00,8,5,0,0.00
2013-9-2,81,75,72,70,68,67,88,80,64,30.09,30.03,6,3,0,0.03
2013-9-3,91,80,71,71,67,64,85,68,47,30.09,30.00,9,4,0,0.00
2013-9-4,78,74,71,68,66,64,81,77,68,30.09,30.04,4,2,0,0.00
2013-9-5,90,80,70,70,65,61,76,62,51,30.16,30.06,10,3,0,0.00
2013-9-6,92,80,70,72,67,62,89,67,44,30.14,30.07,10,4,0,0.03
2013-9-7,90,80,72,74,72,70,93,77,56,30.11,30.01,8,4,8,0.08
2013-9-8,92,82,74,72,70,68,87,67,50,30.11,30.03,9,5,15,0.00
2013-9-9,91,81,74,70,68,66,81,66,47,30.16,30.05,9,5,0,0.03
2013-9-10,90,81,73,74,70,67,84,70,51,30.12,30.03,10,6,0,0.00
2013-9-11,90,80,74,75,71,68,85,74,54,30.15,30.05,9,4,0,0.00
2013-9-12,91,81,74,75,72,65,91,75,58,30.08,29.98,9,4,0,0.00
2013-9-13,84,77,74,71,70,67,88,80,65,30.00,29.95,6,2,0,0.02
2013-9-14,91,86,76,73,72,70,83,65,52,30.01,29.92,9,6,0,0.00
2013-9-15,84,77,75,71,69,66,87,75,57,30.04,29.96,6,2,6,0.00
2013-9-16,90,81,76,72,70,68,82,69,49,30.10,30.02,9,5,10,0.01
2013-9-17,80,75,73,71,70,69,91,84,76,30.09,30.02,7,4,0,0.02
2013-9-18,82,76,74,70,69,67,83,79,66,30.06,30.00,5,2,0,0.00
2013-9-19,90,82,74,73,69,66,81,66,50,30.09,30.01,10,5,5,0.00
2013-9-20,90,80,73,76,69,67,87,72,51,30.11,30.04,10,5,0,0.06
2013-9-21,89,79,73,74,68,66,83,70,54,30.10,30.00,11,6,5,0.01
2013-9-22,88,79,72,72,69,66,87,72,55,30.10,30.01,8,4,6,0.09
2013-9-23,91,84,73,72,69,67,84,63,48,30.08,30.00,10,6,6,0.00
2013-9-24,76,74,73,72,69,68,91,84,76,30.06,30.00,4,2,4,0.00
2013-9-25,90,83,74,72,70,69,84,66,52,30.12,30.02,8,5,0,0.00
2013-9-26,90,80,72,72,68,65,87,67,47,30.06,29.99,7,3,0,0.00
2013-9-27,86,78,74,69,67,65,80,70,55,30.10,30.03,7,3,0,0.00
2013-9-28,81,75,74,71,69,67,86,82,70,30.16,30.09,9,4,10,0.00
2013-9-29,89,79,73,74,69,66,82,71,53,30.11,30.01,9,5,6,0.00
2013-9-30,89,80,73,71,68,64,81,67,55,30.10,30.00,8,4,1,0.00
2013-10-1,90,81,74,72,69,65,81,67,53,30.07,29.97,9,5,9,0.00
2013-10-2,89,82,75,70,68,65,80,64,50,30.04,29.95,9,6,8,0.00
2013-10-3,87,80,75,70,67,64,74,65,54,30.05,29.95,8,4,0,0.00
2013-10-4,89,80,73,75,69,65,87,69,51,30.08,29.98,9,6,0,0.00
2013-10-5,88,79,72,71,68,66,89,70,52,30.07,29.98,9,5,0,0.00
2013-10-6,79,75,73,71,68,65,84,77,67,30.06,30.00,8,2,8,0.03
2013-10-7,88,80,74,71,68,65,81,67,53,30.09,30.02,9,5,0,0.00
2013-10-8,87,78,74,75,68,64,81,70,56,30.14,30.04,9,5,0,0.00
2013-10-9,78,75,74,69,67,65,84,76,70,30.10,30.05,7,4,0,0.00
2013-10-10,90,80,72,71,68,65,87,69,48,30.07,29.97,8,4,0,0.00
2013-10-11,94,80,71,75,70,65,86,73,53,30.09,29.99,4,1,1,0.03
2013-10-12,94,88,78,76,73,69,75,63,47,30.09,29.99,5,3,0,0.00
2013-10-13,91,80,72,74,69,66,83,71,54,30.06,29.96,8,2,0,0.00
2013-10-14,87,78,71,74,69,66,85,75,57,30.04,29.95,6,2,0,0.00
2013-10-15,90,79,71,74,68,64,82,70,49,30.05,29.95,8,3,0,0.00
2013-10-16,90,84,75,70,68,67,84,61,49,30.06,29.95,10,6,6,0.00
2013-10-17,94,80,70,74,68,64,82,70,45,30.06,29.98,3,1,0,0.00
2013-10-18,86,79,72,73,69,64,83,73,60,30.04,29.93,3,1,0,0.00
2013-10-19,85,78,70,72,69,64,85,75,59,29.97,29.89,5,2,0,0.00
2013-10-20,88,78,72,74,69,64,83,74,59,30.02,29.92,4,1,0,0.00
2013-10-21,90,79,72,69,67,66,84,68,47,30.05,29.95,7,3,0,0.00
2013-10-22,90,79,71,72,68,64,82,69,49,30.05,29.98,9,4,0,0.00
2013-10-23,91,80,72,71,68,64,84,67,44,30.08,29.98,9,4,0,0.00
2013-10-24,90,79,70,70,67,63,85,68,50,30.05,29.95,9,4,0,0.00
2013-10-25,92,80,71,73,68,62,82,69,48,30.07,29.97,8,3,0,0.00
2013-10-26,82,75,72,72,68,66,83,78,70,30.11,30.03,2,0,0,0.00
2013-10-27,94,81,72,74,70,66,86,70,47,30.10,30.00,6,2,0,0.00
2013-10-28,91,80,73,74,68,64,84,69,52,30.11,29.99,8,3,9,0.00
2013-10-29,87,78,72,70,68,65,82,70,56,30.14,30.03,9,4,8,0.00
2013-10-30,87,76,73,74,68,65,87,77,58,30.16,30.06,7,3,0,0.02
2013-10-31,90,80,73,71,68,64,83,67,48,30.16,30.07,9,4,7,0.01
2013-11-1,83,76,72,74,69,66,86,80,67,30.15,30.05,7,5,0,0.05
2013-11-2,87,78,72,72,68,66,84,72,55,30.14,30.05,10,6,11,0.00
2013-11-3,87,79,74,69,67,66,78,68,54,30.14,30.03,10,6,0,0.01
2013-11-4,88,78,72,74,68,65,88,73,53,30.10,30.00,8,4,0,0.01
2013-11-5,87,77,71,74,68,66,89,74,56,30.07,29.97,7,4,0,0.00
2013-11-6,82,73,71,68,66,65,84,80,62,30.05,30.01,6,2,9,0.00
2013-11-7,88,78,70,72,68,64,80,71,56,30.05,29.94,7,2,0,0.00
2013-11-8,88,76,73,70,68,66,82,76,56,30.05,29.95,5,1,5,0.00
2013-11-9,85,75,71,74,69,66,93,82,65,29.99,29.88,10,4,10,0.24
2013-11-10,80,73,69,74,68,65,93,84,66,30.04,29.90,12,8,21,0.15
2013-11-11,83,75,69,65,62,60,84,65,50,30.05,29.95,10,8,0,0.30
2013-11-12,86,75,67,64,61,58,77,63,47,30.08,29.98,7,3,0,0.00
2013-11-13,77,70,67,64,62,61,82,76,63,30.07,30.02,5,2,0,0.00
2013-11-14,82,74,69,72,69,66,94,85,71,30.08,29.98,7,2,7,0.23
2013-11-15,87,79,73,74,71,64,92,78,60,30.11,30.02,7,3,0,0.02
2013-11-16,87,79,73,73,69,66,83,72,58,30.11,30.01,9,5,5,0.02
2013-11-17,86,78,72,71,68,64,81,71,59,30.05,29.96,4,1,0,0.02
2013-11-18,92,78,70,72,67,62,86,71,48,30.05,29.94,4,1,0,0.01
2013-11-19,90,76,68,73,67,62,85,74,48,30.05,29.93,4,1,5,0.04
2013-11-20,82,75,69,71,67,61,84,76,67,30.06,29.96,2,0,0,0.04
2013-11-21,87,77,71,73,68,63,86,73,52,30.11,29.99,5,1,0,0.02
2013-11-22,88,77,69,72,68,63,87,75,56,30.11,30.02,8,3,4,0.02
2013-11-23,85,76,70,67,64,60,81,68,52,30.09,29.98,9,5,0,0.00
2013-11-24,85,75,66,65,61,57,79,64,47,30.06,29.95,10,4,0,0.00
2013-11-25,87,76,70,67,65,63,81,68,49,30.13,30.02,7,4,3,0.00
2013-11-26,84,77,72,71,68,64,86,73,62,30.17,30.04,6,4,5,0.00
2013-11-27,90,78,69,70,66,59,81,67,45,30.16,30.01,7,4,0,0.00
2013-11-28,90,79,70,71,67,63,82,68,52,30.08,29.97,3,1,3,0.00
2013-11-29,85,77,70,71,67,63,89,73,53,30.04,29.92,4,1,1,0.02
2013-11-30,82,77,71,72,69,67,90,78,68,30.05,29.97,6,1,3,0.00
2013-12-1,83,76,70,73,69,64,91,79,66,30.07,29.95,8,2,0,0.02
2013-12-2,88,77,70,73,68,64,91,75,58,30.08,29.97,2,0,4,0.00
2013-12-3,88,76,68,69,65,62,83,70,50,30.05,29.92,6,2,1,0.04
2013-12-4,85,76,68,67,63,58,80,65,46,30.06,29.93,8,3,0,0.00
2013-12-5,91,77,68,69,65,60,86,68,43,30.08,29.97,4,1,0,0.00
2013-12-6,85,75,69,70,66,64,87,73,52,30.08,29.96,7,2,2,0.00
2013-12-7,92,78,68,72,66,61,86,68,48,30.04,29.95,4,1,7,0.00
2013-12-8,85,76,70,72,67,61,83,74,55,30.12,29.99,8,2,11,0.00
2013-12-9,88,79,71,76,71,67,88,76,60,30.15,30.03,9,3,0,0.00
2013-12-10,86,79,73,70,68,65,87,72,52,30.12,30.02,11,6,0,0.00
2013-12-11,86,77,72,70,67,62,91,72,55,30.11,30.01,9,5,0,0.01
2013-12-12,88,76,68,71,66,60,87,71,49,30.13,29.99,7,3,3,0.03
2013-12-13,83,76,71,70,66,63,81,71,62,30.14,30.02,6,3,0,0.02
2013-12-14,87,76,70,70,64,61,78,69,50,30.07,29.96,5,2,0,0.01
2013-12-15,83,73,67,70,64,61,86,76,56,30.05,29.91,3,0,1,0.00
2013-12-16,89,76,67,71,66,61,88,74,53,30.07,29.96,5,2,0,0.00
2013-12-17,86,75,67,67,65,61,88,73,46,30.11,30.01,8,3,0,0.00
2013-12-18,86,75,68,70,66,63,87,75,55,30.11,30.01,7,2,0,0.00
2013-12-19,84,74,67,70,65,62,92,75,57,30.12,30.02,8,3,13,0.57
2013-12-20,84,76,69,70,66,61,82,71,59,30.12,30.01,7,3,0,0.00
2013-12-21,85,75,69,71,67,63,89,76,59,30.08,29.99,9,2,0,0.00
2013-12-22,86,74,67,70,66,62,87,75,56,30.08,29.99,8,3,2,0.00
2013-12-23,85,76,69,70,67,62,91,75,58,30.12,30.01,7,4,0,0.03
2013-12-24,85,76,70,69,67,65,88,75,56,30.14,30.03,9,4,0,0.00
2013-12-25,86,76,71,70,67,65,85,74,56,30.13,30.02,9,6,14,0.00
2013-12-26,85,76,70,70,67,64,87,73,52,30.08,29.98,9,6,8,0.00
2013-12-27,82,74,69,72,67,64,89,79,65,30.07,29.94,11,6,12,0.05
2013-12-28,83,75,70,75,70,66,92,84,69,30.04,29.90,9,6,9,0.07
2013-12-29,82,75,71,69,67,64,92,78,60,30.08,29.99,10,8,10,0.37
2013-12-30,80,73,69,69,65,64,86,78,59,30.08,30.00,9,6,9,0.00
2013-12-31,85,75,69,69,66,63,86,73,56,30.08,29.98,8,5,6,0.00
2014-1-1,88,74,66,71,66,62,84,76,57,30.04,29.93,3,1,8,0.00
2014-1-2,81,74,68,70,66,62,86,79,69,29.97,29.82,9,3,8,0.00